Seeley, CA

2:24 AM PST on December 09, 2016 (GMT -0800)
El Centro Naval Air Facility

Weather History for KNJK - September, 2013

Change the Weather History Date:

Friday, September 27, 2013

  Actual Average Record
Temperature  
Mean Temperature 72 °F -  
Max Temperature 87 °F 96 °F 108 °F (2015)
Min Temperature 57 °F 70 °F 57 °F (2013)
Cooling Degree Days 6    
Growing Degree Days 22 (Base 50)    
Moisture  
Dew Point 32 °F    
Average Humidity 27    
Maximum Humidity 55    
Minimum Humidity 9    
Precipitation  
Precipitation 0.00 in - - ()
Sea Level Pressure  
Sea Level Pressure 29.94 in    
Wind  
Wind Speed 9 mph (NW)    
Max Wind Speed 17 mph    
Max Gust Speed 22 mph    
Visibility 10 miles    
Events      
Averages and records for this station are not official NWS values.
T = Trace of Precipitation, MM = Missing Value Source: NWS Daily Summary

Daily Weather History Graph

Daily Weather History Graph

Search for Another Location

Airport or City:

Trip Planner

Search our weather history database for the weather conditions in past years. The results will help you decide how hot, cold, wet, or windy it might be!

Date:

Astronomy

Sep. 27, 2013 Rise Set
Actual Time 6:34 AM PDT 6:32 PM PDT
Civil Twilight 6:09 AM PDT 6:56 PM PDT
Nautical Twilight 5:41 AM PDT 7:25 PM PDT
Astronomical Twilight 5:12 AM PDT 7:54 PM PDT
Moon No Moon Rise 1:56 PM PDT (9/27)
Length of Visible Light 12h 46m
Length of Day
11h 57m
Last Quarter, 44% of the Moon is Illuminated
Sep 27
Last Quarter
Oct 4
New
Oct 11
First Quarter
Oct 18
Full
Oct 26
Last Quarter

Hourly Weather History & Observations

Time (PDT) Temp. Dew Point Humidity Pressure Visibility Wind Dir Wind Speed Gust Speed Precip Events Conditions
12:56 AM 66.0 °F 45.0 °F 47% 29.84 in 10.0 mi West 9.2 mph - N/A   Clear
1:56 AM 64.0 °F 45.0 °F 50% 29.86 in 10.0 mi West 9.2 mph - N/A   Clear
2:56 AM 63.0 °F 44.1 °F 50% 29.86 in 10.0 mi West 8.1 mph - N/A   Clear
3:56 AM 63.0 °F 44.1 °F 50% 29.86 in 10.0 mi West 8.1 mph - N/A   Clear
4:56 AM 59.0 °F 43.0 °F 55% 29.88 in 10.0 mi West 6.9 mph - N/A   Clear
5:56 AM 57.9 °F 41.0 °F 53% 29.91 in 10.0 mi WNW 9.2 mph - N/A   Clear
6:56 AM 66.9 °F 37.0 °F 33% 29.94 in 10.0 mi NW 8.1 mph - N/A   Clear
7:56 AM 68.0 °F 39.9 °F 36% 29.96 in 10.0 mi Calm Calm - N/A   Clear
8:56 AM 75.9 °F 37.0 °F 24% 29.99 in 10.0 mi North 9.2 mph - N/A   Clear
9:56 AM 79.0 °F 30.0 °F 17% 30.00 in 10.0 mi North 15.0 mph - N/A   Clear
10:56 AM 81.0 °F 27.0 °F 14% 30.01 in 10.0 mi NNE 11.5 mph - N/A   Clear
11:56 AM 82.4 °F 28.4 °F 14% 29.95 in 10.0 mi North 4.6 mph - N/A   Clear
12:56 PM 82.9 °F 26.1 °F 13% 29.98 in 10.0 mi NW 15.0 mph - N/A   Clear
1:56 PM 84.9 °F 26.1 °F 12% 29.96 in 10.0 mi North 9.2 mph - N/A   Clear
2:56 PM 84.9 °F 24.1 °F 11% 29.95 in 10.0 mi NNW 9.2 mph - N/A   Clear
3:56 PM 86.0 °F 21.9 °F 10% 29.94 in 10.0 mi NNW 17.3 mph 21.9 mph N/A   Clear
4:56 PM 86.0 °F 19.9 °F 9% 29.94 in 10.0 mi NNW 13.8 mph - N/A   Clear
5:56 PM 84.0 °F 23.0 °F 11% 29.94 in 10.0 mi NW 9.2 mph - N/A   Clear
6:56 PM 77.0 °F 24.1 °F 14% 29.94 in 10.0 mi North - - N/A   Clear
7:56 PM 73.9 °F 25.0 °F 16% 29.96 in 10.0 mi North - - N/A   Clear
8:56 PM 70.0 °F 28.9 °F 22% 29.97 in 10.0 mi North - - N/A   Clear
9:56 PM 66.0 °F 30.0 °F 26% 29.98 in 10.0 mi North - - N/A   Clear
10:56 PM 64.0 °F 30.0 °F 28% 29.99 in 10.0 mi North - - N/A   Clear
11:56 PM 62.1 °F 28.0 °F 28% 30.00 in 10.0 mi North - - N/A   Clear